Flag for Switzerland Weather past 2 weeks in Volketswil, Zurich, Switzerland

Now
42 °F

Quite cool.


Feels Like: 37 °F
Forecast: 31 / 50 °F
Wind: 7 mph from West

Location: Zurich Town / Ville.

Current Time: Dec 22, 2014 at 1:51:58 PM

Latest Report: Dec 22, 2014 at 1:00 PM


Visibility: N/A

Pressure: 30.46 "Hg

Humidity: 68%

Dew point: 32 °F

Location of VolketswilLocation

Historic Weather in Volketswil — Graph

°F

Volketswil temperature yesterday

Maximum temperature yesterday: 43 °F (at 1:00 PM)
Minimum temperature yesterday: 35 °F (at 8:00 PM)
Average temperature yesterday: 39 °F

Past Weeks' High & Low Weather Summary

 TemperatureHumidityPressure
High54 °F (Dec 19, 2:00 PM)100% (Dec 9, 2:00 AM)30.60 "Hg (Dec 9, 2:00 AM)
Low30 °F (Dec 10, 2:00 AM)43% (Dec 13, 1:00 PM)29.87 "Hg (Dec 12, 8:00 PM)
Average41 °F79%30.18 "Hg
* Reported Dec 7 12:00 Noon — Dec 22 12:00 Noon, Volketswil, Weather by CustomWeather, © 2014

Note: Actual official high and low records may vary slightly from our data, if they occured in-between our weather recording intervals... More about our weather records

Advertising

Volketswil weather history for previous 24 hours

 ConditionsComfort  
Time TempWeatherWind HumidityBarometerVisibility
12:00 PM
Dec 22
39 °FChilly.5 mph74%30.49 "HgN/A
11:00 AM38 °FChilly.6 mph80%30.51 "HgN/A
10:00 AM36 °FChilly.5 mph87%30.51 "HgN/A
9:00 AM35 °FChilly.6 mph87%30.50 "HgN/A
8:00 AM34 °FChilly.6 mph89%30.50 "HgN/A
7:00 AM34 °FChilly.8 mph86%30.51 "HgN/A
6:00 AM35 °FChilly.9 mph84%30.50 "HgN/A
5:00 AM35 °FChilly.7 mph84%30.51 "HgN/A
3:00 AM35 °FChilly.7 mph83%30.52 "HgN/A
2:00 AM35 °FChilly.8 mph84%30.52 "HgN/A
1:00 AM36 °FChilly.6 mph83%30.55 "HgN/A
12:00 AM36 °FChilly.7 mph81%30.55 "HgN/A
11:00 PM
Dec 21
36 °FChilly.5 mph82%30.56 "HgN/A
9:00 PM36 °FChilly.5 mph87%30.58 "HgN/A
8:00 PM35 °FChilly.3 mph86%30.59 "HgN/A
7:00 PM37 °FChilly.2 mph83%30.58 "HgN/A
6:00 PM37 °FChilly.No wind82%30.58 "HgN/A
5:00 PM40 °FChilly.3 mph70%30.55 "HgN/A
4:00 PM41 °FQuite cool.6 mph66%30.55 "HgN/A
3:00 PM42 °FQuite cool.5 mph64%30.55 "HgN/A
2:00 PM42 °FQuite cool.5 mph66%30.56 "HgN/A
1:00 PM43 °FQuite cool.6 mph66%30.56 "HgN/A
Weather by CustomWeather, © 2014

See weather overviewHow to use our weather pages